Retour au catalogue

STARLINK-31667

ActifCommunicationsVLEO
NORAD 59609·PAYLOAD·🇺🇸 United States

Lancé Apr 28, 2024 depuis Cape Canaveral Space Force Station

Loading…

Prochains Passages (prochaines 24 heures)

TLE

FraisSource: CelesTrak SupGP

Époque: Sep 15, 2026, 02:07 UTC

1 59609C 24080J   26258.08868056 -.00021534  00000+0 -77986-3 0  2581
2 59609  43.0012  44.3784 0001722 269.6832  97.0764 15.27592355    17

Suivez STARLINK-31667 en temps réel avec AllMySat

Download on the App Store